Flag for Belgium Weather past 2 weeks in Ghent, Belgium

Now
61 °F

Partly sunny.


Feels Like: 61 °F
Forecast: 47 / 56 °F
Wind: 6 mph from Southwest

Location: Munte

Current Time: Oct 20, 2014 at 1:23:01 PM

Latest Report: Oct 20, 2014 at 12:00 PM


Visibility: 9 mi

Pressure: 30.08 "Hg

Humidity: 76%

Dew point: 53 °F

Location of GhentLocation

Historic Weather in Ghent — Graph

°F

Ghent temperature yesterday

Maximum temperature yesterday: 71 °F (at 2:00 PM)
Minimum temperature yesterday: 60 °F (at 11:00 PM)
Average temperature yesterday: 64 °F

Past Weeks' High & Low Weather Summary

 TemperatureHumidityPressure
High73 °F (Oct 18, 4:00 PM)100% (Oct 11, 12:00 PM)30.12 "Hg (Oct 11, 12:00 PM)
Low48 °F (Oct 12, 7:00 AM)55% (Oct 9, 4:00 PM)29.44 "Hg (Oct 7, 8:00 AM)
Average57 °F85%29.80 "Hg
* Reported Oct 5 12:00 Noon — Oct 20 12:00 Noon, Ghent, Weather by CustomWeather, © 2014

Note: Actual official high and low records may vary slightly from our data, if they occured in-between our weather recording intervals... More about our weather records

Advertising

Ghent weather history for previous 24 hours

 ConditionsComfort  
Time TempWeatherWind HumidityBarometerVisibility
12:00 PM
Oct 20
61 °FPartly sunny.6 mph76%30.08 "Hg9 mi
11:00 AM59 °FPartly sunny.3 mph82%30.07 "Hg8 mi
10:00 AM56 °FPartly sunny.3 mph91%30.08 "Hg6 mi
9:00 AM55 °FPartly sunny.3 mph91%30.07 "Hg6 mi
8:00 AM55 °FOvercast.3 mph92%30.05 "Hg6 mi
7:00 AM56 °FPassing clouds.3 mph91%30.05 "Hg6 mi
5:00 AM56 °FPassing clouds.3 mph92%30.05 "Hg6 mi
4:00 AM56 °FCool.5 mph90%30.06 "Hg8 mi
3:00 AM57 °FCool.5 mph89%30.06 "Hg8 mi
2:00 AM58 °FCool.3 mph89%30.06 "Hg10 mi
1:00 AM59 °FCool.3 mph87%30.07 "Hg9 mi
12:00 AM60 °FCool.6 mph88%30.07 "Hg11 mi
11:00 PM
Oct 19
60 °FCool.5 mph88%30.07 "Hg11 mi
10:00 PM60 °FCool.6 mph85%30.05 "Hg11 mi
9:00 PM61 °FCool.6 mph81%30.03 "Hg12 mi
8:00 PM62 °FCool.6 mph79%30.02 "Hg17 mi
7:00 PM63 °FMild.5 mph78%30.01 "Hg22 mi
6:00 PM64 °FMild.5 mph80%30.00 "Hg28 mi
5:00 PM66 °FMild.7 mph78%30.00 "Hg28 mi
4:00 PM67 °FMild.5 mph78%30.00 "Hg22 mi
3:00 PM70 °FMild.7 mph70%29.99 "Hg22 mi
2:00 PM71 °FMild.9 mph66%29.99 "Hg28 mi
1:00 PM70 °FMild.6 mph69%29.99 "Hg15 mi
Weather by CustomWeather, © 2014

See weather overviewHow to use our weather pages